Terug naar catalogus

SL-12 R/B(2)

ActiefGEO
NORAD 11728·ROCKET BODY·🇷🇺 Russia

Gelanceerd Feb 20, 1980 vanaf Baikonur Cosmodrome

Loading…

TLE

VersSource: Space-Track

Epoch: Sep 14, 2026, 16:35 UTC

1 11728U 80016D   26257.69140822 -.00000066  00000-0  00000-0 0  9991
2 11728   7.0920 293.1690 0016520 306.1398 230.7542  0.97624069120440

Volg SL-12 R/B(2) in realtime met AllMySat

Download on the App Store